Tracking 22881 objects as of 20-Apr-2021
HD Live streaming from Space Station
objects crossing your sky now

STARLINK-2053

Track STARLINK-2053 now!
10-day predictions
STARLINK-2053 is classified as:


NORAD ID: 47663
Int'l Code: 2021-012AV
Perigee: 355.5 km
Apogee: 358.3 km
Inclination: 53.0 °
Period: 91.5 minutes
Semi major axis: 6727 km
RCS: Unknown
Launch date: February 16, 2021
Source: United States (US)
Launch site: AIR FORCE EASTERN TEST RANGE (AFETR)
aabbcc
Your satellite tracking list
Your tracking list is empty




NASA's NSSDC Master Catalog

Two Line Element Set (TLE):
1 47663U 21012AV  21109.83334491  .00021674  00000-0  15843-3 0  9994
2 47663  53.0458 149.5956 0002148  23.4302 271.9542 15.73197689 10659
Source of the keplerian elements: AFSPC